Regional Weather Roundup
Issued by NWS

Home | Current Version | Previous Version | Graphics & Text | Print | Product List | Glossary On
Versions: 1 2 3 4 5 6 7 8 9 10 11 12 13 14 15 16 17 18 19 20 21 22 23 24 25 26 27 28 29 30 31 32 33 34 35 36 37 38 39 40 41 42 43 44 45 46 47 48 49 50
000
ASUS43 KDMX 251906
RWRIA

WEATHER ROUNDUP FOR IOWA
NATIONAL WEATHER SERVICE DES MOINES IA
200 PM CDT TUE JUL 25 2017

NOTE: "FAIR" INDICATES FEW OR NO CLOUDS BELOW 12,000 FEET WITH NO
SIGNIFICANT WEATHER AND/OR OBSTRUCTIONS TO VISIBILITY.

* - THESE STATIONS ARE NOT NWS STATIONS...THUS NOT UNDER NWS
QUALITY CONTROL.  THEY ALSO DO NOT REPORT WEATHER SUCH
AS PRECIPITATION OR FOG.

IAZ001>003-012>014-020>022-031>034-043>046-252000-
   NORTHWEST IOWA

CITY           SKY/WX    TMP DP  RH WIND       PRES   REMARKS
CARROLL *      SUNNY     88  75  66 S15       30.02S HX  97
CHEROKEE *     SUNNY     90  72  55 SW13G23   29.97F HX  96
DENISON *      SUNNY     88  73  62 S13G20    30.03R HX  96
ORANGE CITY *  SUNNY     91  72  52 S15       29.95F HX  98
SHELDON *      SUNNY     88  75  66 MISG      29.94F HX  97
SIOUX CITY     SUNNY     95  73  48 S13G24    29.95F HX 104
SPENCER        SUNNY     91  72  53 S14G24    29.98S HX  98
STORM LAKE *   SUNNY     88  73  62 S15       30.01S HX  96
$$

IAZ055>058-069>071-079>083-090>094-252000-
   SOUTHWEST IOWA

CITY           SKY/WX    TMP DP  RH WIND       PRES   REMARKS
ATLANTIC *     SUNNY     90  73  58 S12       30.03S HX  98
AUDUBON *      SUNNY     90  75  62 S13       30.05S HX 100
CLARINDA *     SUNNY     90  77  66 S8        30.06S HX 102
COUNCIL BLFS * SUNNY     90  75  62 S13       30.02S HX 100
CRESTON *      SUNNY     88  72  58 S12G20    30.08S HX  94
HARLAN  *      SUNNY     88  75  66 S14       30.05S HX  97
LAMONI         SUNNY     87  72  60 SE8       30.08F HX  93
RED OAK *      SUNNY     90  75  62 S10       30.03F HX 100
SHENANDOAH *   SUNNY     90  75  62 S9G16     30.03S HX 100
$$

IAZ047>049-059>061-072>074-084-252000-
   CENTRAL IOWA

CITY           SKY/WX    TMP DP  RH WIND       PRES   REMARKS
AMES           SUNNY     86  72  62 SE15      30.05F HX  92
ANKENY *       SUNNY     88  70  55 S10G17    30.06F HX  92
BOONE *        SUNNY     86  72  62 S14G21    30.04F HX  92
CHARITON *     SUNNY     90  68  48 SE12      30.07F HX  93
DES MOINES     MOSUNNY   92  68  45 SE14G21   30.04F HX  96
GRINNELL*      SUNNY     84  68  58 SE10      30.10F HX  86
KNOXVILLE *    SUNNY     88  66  48 S10G22    30.06F HX  90
MARSHALLTOWN   SUNNY     84  68  58 S18       30.07F HX  87
NEWTON *       SUNNY     84  70  61 S12       30.08F HX  88
PELLA *        SUNNY     88  65  45 SE9       30.09S HX  90
$$

IAZ004>006-015-016-023>025-035-036-252000-
   NORTH CENTRAL IOWA

CITY           SKY/WX    TMP DP  RH WIND       PRES   REMARKS
ALGONA *       CLOUDY    86  72  62 S15G26    30.00F HX  92
ESTHERVILLE    MOSUNNY   85  73  67 S18G25    29.97F HX  91
FORT DODGE *   MOSUNNY   90  72  55 S14G20    30.03S HX  96
MASON CITY     SUNNY     82  69  64 S21G29    30.05F HX  85
FOREST CITY *    N/A     82  68  61 S22       30.03F HX  85
WEBSTER CITY * MOSUNNY   86  72  62 S13G21    30.02S HX  92
IOWA FALLS *     N/A     83  68  59 SE15G21   30.07F HX  87
$$

IAZ007>011-017>019-026>030-037>042-050>054-066-252000-
   NORTHEAST IOWA

CITY           SKY/WX    TMP DP  RH WIND       PRES   REMARKS
CEDAR RAPIDS   MOSUNNY   81  71  71 SE9       30.12F HX  85
CHARLES CITY * MOSUNNY   79  72  78 SE22      30.07F HX  82
DECORAH *      MOSUNNY   73  66  78 S12G21    30.08F
DUBUQUE        CLOUDY    76  65  68 S8        30.17F
MONTICELLO *   CLOUDY    79  68  69 SE10      30.15S HX  81
OELWEIN *      MOSUNNY   77  70  78 SE15G21   30.12F
WATERLOO       MOSUNNY   81  67  62 SE15      30.08F HX  83
$$

IAZ064-065-067-068-078-252000-
   EAST CENTRAL IOWA

CITY           SKY/WX    TMP DP  RH WIND       PRES   REMARKS
DAVENPORT      MOSUNNY   79  66  64 SE8       30.16F HX  81
IOWA CITY      MOSUNNY   82  69  64 SE9G17    30.13F HX  85
MT. PLEASANT * SUNNY     85  66  52 SE10      30.12F HX  86
MUSCATINE *    MOSUNNY   82  66  57 VRB7G15   30.13F HX  85
QUAD CITIES    CLOUDY    82  67  60 SE10      30.13F HX  84
$$

IAZ062-063-075>077-085>089-095>099-252000-
   SOUTHEAST IOWA

CITY           SKY/WX    TMP DP  RH WIND       PRES   REMARKS
BURLINGTON     MOSUNNY   83  69  62 S7        30.12F HX  86
FAIRFIELD *    SUNNY     86  61  42 SE9G15    30.10F HX  86
FORT MADISON * MOSUNNY   82  70  65 SE7       30.13F HX  86
KEOKUK *       SUNNY     84  68  58 E8G17     30.11S HX  87
OSKALOOSA *      N/A     87  65  47 SE9       30.10S HX  89
CENTERVILLE *    N/A     88  70  55 CALM      30.11S HX  92
OTTUMWA        SUNNY     89  64  43 SE8       30.09S HX  90
WASHINGTON *   SUNNY     82  70  65 SE10      30.13F HX  86
$$

ABBREVIATIONS USED IN REMARKS
   TC - TEMPERATURES IN CELSIUS
  WCI - WIND CHILL INDEX
   HX - HEAT INDEX
  VSB - VISIBILITY
$$





USA.gov is the U.S. government's official web portal to all federal, state and local government web resources and services.